Tracking 21473 objects as of 27-Sep-2020
HD Live streaming from Space Station
objects crossing your sky now

STARLINK-1437

Track STARLINK-1437 now!
10-day predictions
STARLINK-1437 is classified as:


NORAD ID: 45714
Int'l Code: 2020-035BK
Perigee: 514.8 km
Apogee: 516.6 km
Inclination: 53.0 °
Period: 94.8 minutes
Semi major axis: 6886 km
RCS: Unknown
Launch date: June 4, 2020
Source: United States (US)
Launch site: AIR FORCE EASTERN TEST RANGE (AFETR)
aabbcc
Your satellite tracking list
Your tracking list is empty




NASA's NSSDC Master Catalog

Two Line Element Set (TLE):
1 45714U 20035BK  20271.58337963 -.01054731 +00000-0 -54218-1 0  9991
2 45714 053.0009 326.3256 0001297 068.7249 325.1971 15.19088603001765
Source of the keplerian elements: AFSPC